Theta_e
319 319 320 320 320 321 319 317 315 317 317 316 318 319 319 321 321 323 328 328 327 326 326 325 326 327 330 334 336 336 335 338 338 336 336 338 339 339 338 341 338 336 340 328 324
318 319 320 320 321 321 321 318 315 317 316 316 318 320 318 320 321 325 330 328 326 326 326 326 326 326 329 335 335 334 331 335 336 336 335 338 338 339 340 339 335 331 333 325 324
316 318 320 320 321 322 322 319 315 317 317 317 318 319 318 320 322 327 329 328 328 328 326 332 331 332 332 335 336 332 334 333 337 337 338 339 339 340 338 339 332 327 326 325 324
316 317 319 320 321 322 322 320 316 318 318 317 318 319 319 330 329 330 329 328 329 327 326 326 336 336 335 334 334 334 333 336 337 337 338 339 340 340 340 340 335 331 328 325 325
317 317 318 319 321 322 322 319 317 320 319 317 318 319 320 328 329 328 328 330 327 328 325 325 337 336 334 336 335 334 335 335 337 338 338 340 340 340 340 340 331 327 326 327 326
315 317 318 319 320 322 321 318 321 321 318 317 318 319 324 328 327 328 329 328 326 327 333 331 331 336 335 335 333 335 335 335 336 337 338 339 340 340 339 340 330 329 329 329 329
314 315 318 319 320 322 320 320 320 321 320 317 317 319 325 328 327 329 329 327 326 325 327 329 335 335 334 334 336 335 334 333 337 340 340 341 342 341 338 338 331 328 330 330 330
313 314 317 318 320 321 319 320 320 321 320 317 318 320 326 327 327 328 330 326 326 326 326 326 336 335 335 334 333 337 334 335 336 339 340 339 341 341 335 333 329 329 330 331 330
312 313 316 317 319 320 320 321 321 320 320 316 318 321 325 327 327 327 329 326 326 327 327 326 334 335 334 328 327 331 335 338 337 336 339 337 339 339 338 334 330 330 330 331 329
312 313 315 317 318 319 320 319 322 322 320 318 325 322 325 326 326 327 328 326 327 327 326 326 334 328 326 326 329 332 336 335 338 336 338 340 337 341 341 340 339 331 331 330 330
311 312 314 316 318 319 320 320 320 320 320 320 321 322 324 325 326 327 327 327 327 326 324 325 322 323 323 327 328 332 336 336 335 335 337 337 338 337 342 341 341 340 333 329 330
311 312 314 316 317 319 320 320 319 319 319 320 320 321 323 324 324 327 327 327 326 324 325 322 323 324 325 326 330 335 336 334 334 335 336 333 335 338 340 341 341 341 339 334 331
311 312 313 315 316 319 319 320 320 320 319 320 321 321 323 324 325 327 327 327 326 325 325 325 324 325 329 333 334 333 332 333 333 336 336 334 333 340 340 341 341 341 341 339 336
310 311 313 315 316 317 320 320 319 321 321 323 323 322 323 324 325 326 327 327 326 326 325 324 325 326 326 325 331 331 328 334 336 333 336 331 333 333 341 340 340 340 340 340 340
310 311 312 313 315 316 318 320 321 322 327 327 324 323 324 325 325 326 326 327 325 325 326 325 325 325 325 327 330 331 331 334 335 334 333 336 333 335 338 338 335 339 341 340 340
310 311 312 313 314 317 317 318 322 324 328 324 321 320 321 323 324 326 325 327 327 325 324 323 326 326 326 331 331 332 334 326 331 331 336 335 335 335 337 334 334 334 335 335 338
310 311 312 313 315 316 319 321 322 327 327 324 319 320 319 321 322 323 323 325 325 326 324 323 324 324 330 331 328 328 327 330 333 333 336 334 338 332 332 333 333 333 334 333 336
310 311 312 314 314 319 319 320 328 328 329 328 320 321 320 320 321 322 322 322 323 323 322 323 323 328 330 332 331 331 329 331 337 334 332 335 338 333 331 332 333 333 334 334 334
311 312 313 315 317 321 321 322 326 328 328 326 325 321 320 320 321 321 321 321 322 321 324 324 325 327 331 331 330 333 332 329 330 330 329 329 332 328 333 333 332 334 335 335 335
311 312 314 316 323 322 316 318 323 326 325 327 327 328 329 324 320 320 320 322 324 323 324 323 324 327 331 332 332 331 330 331 327 333 335 331 333 331 332 333 332 333 334 333 335
311 313 320 320 321 321 312 316 322 324 325 326 326 326 329 331 322 320 322 324 326 325 324 323 324 325 332 331 331 331 332 332 327 328 333 336 331 325 331 330 330 333 333 333 335
312 314 323 318 319 315 315 318 322 326 325 327 326 328 330 329 328 328 328 330 330 326 326 325 322 327 330 328 328 330 331 329 329 332 331 330 331 331 330 330 332 333 333 333 333
313 317 322 321 316 314 316 320 323 325 324 325 326 327 328 329 329 330 330 330 332 330 330 329 328 329 330 328 328 332 331 330 327 326 333 331 330 332 333 330 332 332 332 331 332
313 316 323 322 320 316 319 319 324 325 323 325 325 328 327 329 330 334 334 333 333 331 332 331 326 325 327 328 327 331 330 331 328 329 330 330 329 329 334 332 331 332 331 331 331
312 316 322 320 320 319 319 319 320 325 324 324 325 327 328 331 332 333 332 333 332 330 331 323 326 330 329 330 331 332 331 331 331 330 333 331 331 333 334 331 331 332 332 331 332
313 318 318 322 323 322 317 319 322 324 325 324 324 335 335 336 335 336 331 330 335 332 331 326 326 333 333 334 334 333 331 331 332 332 333 335 336 333 335 332 333 333 331 330 331
313 317 323 325 322 320 318 317 323 324 324 326 327 336 334 333 334 334 333 331 331 332 329 332 330 332 332 333 330 327 332 335 335 335 334 336 334 335 335 334 333 330 331 331 333
Wind_Speed
16 18 19 21 23 25 28 29 26 23 15 10 6 4 3 4 4 5 6 4 3 3 0 2 3 5 9 6 4 6 4 2 6 6 4 6 4 3 1 11 5 3 18 21 20
15 17 19 20 22 24 26 28 25 22 15 10 6 3 3 4 4 5 5 5 1 2 2 3 3 3 8 8 4 3 4 8 6 6 4 11 7 12 7 6 12 20 21 21 18
16 17 18 20 21 23 24 27 25 21 15 9 5 2 4 5 6 3 5 2 3 4 4 4 9 11 6 7 3 4 4 6 7 9 16 11 10 6 19 3 23 30 26 21 16
17 17 17 20 20 22 24 26 24 20 16 7 3 1 5 7 4 3 4 3 6 1 3 2 6 5 5 2 0 3 2 10 12 16 18 13 9 5 4 6 22 25 24 21 15
17 17 18 19 20 21 24 26 21 20 15 5 1 3 6 3 3 0 4 5 7 0 2 4 13 10 8 5 5 3 1 10 17 25 18 15 12 9 13 12 23 23 20 15 10
16 17 17 18 20 21 24 24 20 18 13 2 1 6 6 3 4 6 9 7 5 3 7 6 7 10 12 5 3 1 4 9 16 19 18 15 5 12 11 21 26 24 19 15 13
15 17 17 18 19 21 24 21 19 15 10 1 2 6 5 4 5 9 10 5 1 3 4 10 5 2 9 6 7 4 4 4 8 14 6 17 2 6 20 27 28 24 20 17 16
15 16 16 17 19 21 19 19 22 11 5 1 4 8 5 6 5 8 8 6 2 4 6 5 6 2 2 11 5 4 4 4 5 12 11 10 8 11 26 30 30 28 25 22 20
16 15 16 16 18 19 17 23 12 9 10 0 6 6 3 6 6 8 10 8 4 8 10 10 11 3 2 4 5 6 2 3 2 12 5 6 6 14 32 28 29 31 29 26 24
16 14 15 16 17 18 18 20 2 3 20 2 3 2 4 1 5 9 9 6 5 7 4 5 3 4 3 4 4 5 2 4 5 6 7 9 13 7 33 31 28 30 31 31 30
16 14 14 15 15 16 19 20 13 4 20 4 3 5 7 5 5 10 11 6 5 4 2 4 3 4 9 10 7 4 2 5 2 6 7 10 11 7 27 27 23 25 32 35 37
16 14 14 13 13 13 12 20 20 14 11 15 13 17 14 7 3 6 9 6 2 2 2 7 4 7 13 6 5 4 2 5 5 3 2 1 3 7 21 32 24 21 24 34 36
15 15 14 13 13 7 8 15 15 14 5 9 7 9 5 5 4 9 11 5 2 1 2 4 9 11 7 4 3 3 6 5 4 2 3 1 4 6 1 9 19 19 20 31 39
15 15 15 14 8 11 2 13 14 12 4 5 4 4 8 5 3 9 12 5 0 2 3 4 2 5 11 7 6 4 8 4 4 3 1 3 4 6 3 6 12 20 30 29 37
14 15 14 14 16 12 12 14 14 5 2 1 4 3 11 9 3 6 13 12 4 5 2 8 4 5 6 5 4 2 8 4 3 3 2 4 3 7 1 4 7 21 32 31 33
14 16 15 14 14 6 15 16 7 4 1 2 6 5 5 7 3 1 7 9 2 4 2 3 7 3 5 4 0 8 6 6 4 3 4 3 3 5 3 4 5 7 13 23 33
15 15 16 14 9 13 13 12 4 3 4 2 4 3 4 4 2 3 1 0 3 3 5 6 6 7 2 4 7 7 5 3 5 5 5 2 1 8 6 8 11 10 22 23 15
16 16 16 12 11 6 10 4 1 2 5 4 3 3 5 5 4 3 5 2 2 4 3 2 8 2 2 3 5 2 4 5 4 2 5 3 3 5 4 9 7 7 10 16 17
16 15 15 5 4 4 3 3 4 4 5 6 4 4 4 3 4 3 6 6 7 8 9 4 6 4 3 4 2 3 2 5 5 2 3 3 6 9 1 5 12 7 13 14 16
15 14 10 7 7 3 4 4 4 5 7 4 3 1 2 3 5 6 6 4 5 13 10 6 4 4 4 2 8 2 3 3 3 1 3 5 4 5 4 2 1 5 6 12 13
12 10 2 12 7 1 2 5 5 13 9 1 2 1 1 2 4 3 2 5 5 4 8 4 4 7 1 4 7 2 2 6 4 4 4 2 6 5 5 2 6 4 9 14 12
6 4 6 14 3 2 2 4 8 8 7 5 1 1 2 2 2 3 4 5 7 8 8 3 5 3 6 6 4 2 4 5 5 4 1 3 6 3 4 5 7 1 6 10 10
4 6 4 13 2 2 5 5 5 4 3 4 3 4 4 4 4 4 0 4 6 2 5 5 2 3 8 7 5 1 3 4 5 3 5 5 6 3 4 5 1 3 7 8 9
3 2 2 11 7 4 2 5 5 8 4 0 2 4 6 7 6 4 6 6 6 6 8 6 3 5 6 5 2 4 4 4 6 3 4 5 7 4 2 4 3 2 5 9 8
3 3 3 3 4 4 4 3 4 4 3 3 4 2 2 3 5 6 5 5 5 5 4 4 2 3 5 4 3 4 4 3 6 3 4 5 3 5 4 4 7 5 7 10 12
2 3 5 6 9 3 7 4 5 4 0 4 4 4 5 4 2 2 2 3 1 6 3 4 2 0 3 3 5 3 7 6 3 1 3 2 2 8 4 5 9 7 8 10 12
4 4 4 5 4 1 3 5 2 1 3 4 3 3 5 4 5 4 4 3 1 1 1 2 5 3 4 4 5 5 2 2 3 3 2 2 4 4 1 2 4 4 5 6 7
Wind_Direction
348 355 3 6 8 10 8 8 7 9 10 13 26 54 109 138 144 163 196 132 137 61 331 227 229 212 195 186 206 108 70 169 192 162 221 175 132 237 231 140 58 73 146 151 147
340 345 352 0 1 3 4 4 3 4 5 5 16 56 122 139 140 169 163 175 136 26 1 313 311 242 168 158 188 84 106 209 188 171 172 167 175 153 142 130 103 108 131 149 154
333 337 344 350 353 357 358 360 356 357 358 359 10 76 124 131 122 158 193 213 48 65 66 74 133 142 112 140 205 149 180 183 197 167 160 158 189 168 150 210 163 151 158 168 180
327 332 340 341 348 351 352 355 351 350 347 347 4 109 136 132 132 79 195 190 100 187 217 156 92 105 85 194 164 121 229 179 162 179 162 168 175 156 154 195 177 170 170 173 185
319 327 333 336 343 346 347 349 348 342 338 330 346 146 146 132 112 93 165 124 112 350 302 146 121 115 140 151 86 56 159 196 177 165 180 166 188 170 213 172 173 169 172 183 202
313 320 327 333 338 342 346 346 343 336 339 314 212 160 152 156 67 146 145 127 126 349 37 23 188 129 113 87 92 188 113 123 178 183 166 173 186 173 197 177 174 177 189 209 235
310 316 322 329 334 339 346 347 347 339 337 278 192 170 157 126 91 133 137 148 159 347 356 5 141 234 140 123 114 74 62 30 163 160 172 153 300 229 176 178 178 186 204 224 235
309 314 317 326 331 338 351 348 341 328 344 289 183 170 158 166 153 153 161 179 210 318 333 332 267 171 53 124 81 101 66 157 213 188 179 159 251 208 175 178 187 194 209 224 231
310 314 315 322 328 338 353 348 349 64 25 187 170 174 185 186 195 169 186 189 253 307 300 240 216 43 68 75 5 36 218 237 219 216 151 207 260 193 184 190 197 202 209 222 227
310 314 314 315 327 338 354 358 42 41 6 64 143 184 210 152 260 213 202 223 284 304 87 163 136 69 23 75 242 241 232 242 217 198 175 204 253 180 191 198 202 209 215 219 226
310 314 311 314 328 338 359 25 42 346 339 250 261 272 268 357 197 226 213 228 257 277 63 82 88 281 236 200 221 169 160 263 236 214 161 220 242 220 200 211 209 208 217 220 228
310 312 311 315 327 333 11 27 18 327 298 292 271 266 265 288 320 214 209 211 137 254 18 15 299 272 293 171 158 161 198 254 310 40 112 250 311 311 198 212 209 217 224 227 231
309 310 314 318 323 321 335 4 356 350 274 291 225 241 229 206 197 222 210 202 160 123 84 156 258 330 26 25 126 210 185 228 179 87 56 341 312 330 315 222 221 227 244 237 238
307 311 318 321 320 335 330 336 340 330 43 274 216 246 193 177 213 216 207 193 119 198 205 224 13 354 310 304 141 240 198 161 148 108 248 32 287 289 321 299 250 240 235 238 242
305 308 313 318 315 329 318 322 336 310 19 165 186 188 183 173 138 204 210 208 205 210 82 255 350 311 316 266 159 272 69 56 91 121 79 357 55 274 54 274 246 252 255 253 250
300 303 305 307 310 326 328 320 318 40 323 358 159 166 119 205 217 46 177 204 267 172 192 265 274 237 218 338 271 153 76 54 47 59 26 282 106 286 265 238 301 286 306 308 267
294 297 298 295 295 319 317 330 37 107 337 269 204 139 166 154 253 164 221 255 175 77 291 349 294 285 222 10 19 51 66 5 7 1 226 28 45 242 259 242 236 319 318 323 333
293 293 288 287 300 296 323 40 68 275 267 293 138 83 155 160 236 189 147 234 235 109 87 103 330 341 357 178 156 70 128 138 248 252 272 6 248 269 240 329 42 29 340 337 333
297 296 291 313 225 272 332 65 221 231 291 326 57 93 330 268 186 139 193 206 221 168 168 167 260 309 20 58 25 170 73 164 108 16 38 261 289 314 8 28 44 14 20 347 339
310 310 304 202 179 277 68 237 253 237 321 4 81 121 144 277 168 156 189 218 228 189 169 210 298 233 202 34 50 129 123 41 21 351 305 294 288 241 303 189 15 22 350 329 314
319 316 10 176 194 279 157 238 280 297 309 41 15 0 191 266 188 164 176 280 208 139 111 133 122 282 132 182 205 344 36 56 108 126 171 275 277 212 272 220 199 265 319 324 321
319 319 330 179 130 47 208 206 308 295 358 30 98 336 22 320 94 127 191 230 356 166 138 169 142 223 236 301 222 160 157 135 123 240 222 153 276 18 99 118 169 268 320 340 345
298 284 197 177 136 290 287 286 272 300 338 16 342 38 10 347 64 45 353 1 36 76 143 180 37 39 350 351 356 355 207 129 104 88 194 149 263 134 106 120 268 305 308 332 323
291 337 223 223 249 155 331 279 302 304 268 207 295 48 33 15 4 24 25 354 23 77 90 114 99 148 192 212 214 304 283 140 132 123 187 229 289 306 174 246 206 308 318 311 311
235 271 346 284 267 228 178 279 315 309 358 333 47 38 198 65 2 2 4 3 38 25 62 96 117 195 227 251 239 245 10 171 191 168 188 257 229 283 184 255 300 309 308 320 327
245 348 338 285 285 231 190 241 214 272 48 351 69 66 64 95 103 313 327 33 56 353 52 6 193 96 317 305 317 317 30 333 40 147 273 188 213 224 143 157 274 299 301 332 349
221 284 312 299 303 144 221 248 260 180 13 73 91 99 55 344 303 299 263 292 218 180 106 101 138 104 265 345 342 10 323 28 350 6 282 192 256 118 223 232 273 297 297 314 326